Cloud_Cover
48 36 24 20 0 0 0 0 0 0 0 0 0 0 0 0 0 0 0 0 0 0 0 0 8 8 8 8 12 12 12 12 20 20 20 12 12 12 20 24 20 24 24 32 24 24 24 24 24 20 20 24 32 32 20 20 12 12 12 12 24 24 24 32 36 36 48 64 48
36 32 24 8 0 0 0 0 0 0 0 0 0 0 0 0 0 0 0 0 8 8 8 12 12 12 12 12 20 20 20 20 20 20 12 12 12 20 24 24 24 32 36 24 24 20 20 20 36 36 32 32 36 32 36 44 24 24 32 36 44 48 48 56 44 44 48 48 64
12 8 0 0 0 0 0 0 0 0 0 0 0 0 0 0 0 8 8 8 12 12 12 20 20 20 20 20 20 12 12 12 12 12 12 12 12 24 32 24 24 36 44 32 24 20 24 36 48 36 20 12 20 32 36 48 32 24 24 32 44 44 48 44 44 48 56 48 56
0 0 0 0 0 0 0 0 0 0 0 0 0 0 0 8 8 12 12 12 20 20 20 20 20 20 20 20 20 12 12 12 12 12 12 8 20 24 32 24 44 44 36 44 64 56 44 20 24 24 24 24 32 32 32 32 36 36 36 24 20 24 36 48 36 44 48 64 44
0 0 0 0 0 0 0 0 0 0 0 8 8 8 8 8 12 12 20 20 20 24 24 24 24 20 20 20 20 20 12 8 8 8 8 8 20 24 36 44 44 56 64 44 44 44 32 8 20 24 32 24 20 20 24 48 44 36 32 32 36 24 20 24 32 24 24 32 64
0 0 0 0 0 0 0 0 8 8 8 8 8 8 8 8 12 20 20 20 24 24 24 24 24 24 20 20 20 20 12 8 20 12 8 0 8 24 44 36 36 36 32 32 20 32 36 32 24 24 24 20 20 24 36 48 32 48 68 48 36 36 32 12 8 12 24 68 88
0 0 0 0 12 24 32 24 20 12 12 12 12 12 8 8 12 20 20 20 24 24 24 24 24 24 20 20 20 20 12 12 8 0 0 0 0 12 24 24 24 24 24 32 20 32 48 44 48 44 32 32 36 44 44 44 36 36 44 64 32 12 0 8 8 44 80 92 92
0 0 0 8 32 44 48 48 44 44 44 44 20 12 8 12 24 24 20 20 20 32 32 32 20 20 12 12 12 12 8 0 0 0 0 8 8 8 12 12 20 20 24 24 44 64 76 76 64 56 48 44 64 68 64 56 48 36 24 32 12 0 0 0 8 44 80 92 92
0 8 8 8 32 36 44 56 48 44 36 24 20 12 12 12 32 36 32 36 36 36 32 24 12 8 8 0 0 0 0 0 0 0 0 0 8 8 8 8 12 20 32 44 64 68 64 68 48 64 80 88 92 92 88 56 36 24 12 12 8 0 0 8 76 92 92 92 92
8 8 8 8 8 8 8 20 20 12 12 20 12 12 20 24 44 48 48 48 44 32 20 12 8 0 0 0 0 0 0 0 0 0 0 12 20 20 24 20 32 44 56 68 88 92 80 36 24 12 12 44 80 92 92 92 64 32 12 8 24 20 20 44 76 88 88 76 80
8 8 8 8 8 0 0 8 8 12 24 32 36 36 44 44 56 56 44 36 24 12 8 0 8 8 0 0 0 0 0 0 0 0 0 12 24 32 44 64 48 48 56 80 88 88 76 36 12 0 8 32 80 92 92 92 88 56 32 24 36 32 20 20 32 48 68 68 68
8 8 8 0 0 0 8 8 12 24 32 32 36 44 44 36 48 44 24 24 12 12 20 20 12 8 8 20 24 20 8 0 0 0 12 24 32 36 48 88 44 36 48 36 48 56 56 48 24 24 44 80 92 92 92 92 92 88 88 92 76 64 56 44 48 56 64 76 76
8 8 0 0 0 0 8 20 32 32 24 24 36 44 44 44 44 32 24 24 24 32 24 24 20 32 36 32 24 20 8 0 0 8 20 20 24 32 36 48 20 20 32 48 36 36 44 56 64 76 88 92 92 92 92 92 92 92 92 92 92 92 92 80 64 68 80 76 68
8 0 0 0 8 8 12 24 32 32 20 12 12 12 12 8 0 12 32 24 24 24 24 24 32 44 48 32 20 8 0 0 0 0 0 0 0 0 8 8 20 32 36 44 32 24 36 76 88 92 92 92 92 92 92 92 92 92 92 92 92 88 76 80 56 64 80 76 68
8 0 0 0 8 8 12 24 20 12 8 0 0 0 0 0 0 8 12 12 12 12 12 24 24 24 24 12 0 0 0 0 0 0 0 0 8 8 12 24 20 32 48 48 56 64 68 80 92 92 92 92 92 92 92 92 92 92 92 92 92 80 68 92 56 64 88 88 88
8 8 8 8 0 0 8 12 8 0 0 0 0 0 0 0 0 0 0 0 0 0 0 0 12 8 0 0 0 8 8 8 8 12 12 8 8 12 20 32 36 56 68 64 56 68 80 80 92 92 92 92 92 92 92 92 92 92 92 92 92 92 92 92 80 88 92 92 92
8 8 8 8 0 0 0 0 0 0 0 0 0 0 0 0 0 0 0 8 0 0 0 0 20 20 8 0 8 12 20 20 20 20 20 20 20 20 20 44 48 48 56 64 68 80 92 92 92 92 92 92 92 92 88 92 92 92 92 92 92 92 92 92 92 92 92 92 88
8 8 8 12 8 0 0 0 0 0 0 0 0 0 0 0 0 0 0 8 8 8 0 0 8 8 12 12 12 20 24 24 24 24 32 24 24 20 20 20 20 20 24 32 48 56 64 68 68 68 68 76 76 80 88 92 92 92 92 92 92 92 92 92 92 92 92 92 88
12 20 20 12 0 0 0 0 0 0 0 0 0 0 0 0 0 0 8 20 12 12 8 8 8 12 12 20 20 24 24 36 36 32 32 24 20 12 8 0 0 0 0 0 20 32 44 48 48 48 48 56 56 64 68 76 76 80 88 92 92 92 92 92 88 92 92 92 92
24 24 20 8 0 0 0 0 0 0 0 0 0 0 0 0 0 8 12 24 12 20 20 24 24 24 24 24 32 32 32 36 32 24 24 12 12 8 0 0 0 0 0 0 8 24 48 64 56 56 56 56 56 56 64 68 76 80 88 88 92 92 92 92 88 88 88 88 92
24 20 8 0 0 0 0 0 0 0 0 0 0 0 0 0 0 12 20 8 12 20 24 24 32 36 32 24 36 36 24 20 24 24 20 0 8 0 0 0 8 8 0 8 24 48 56 24 44 56 64 56 68 68 76 68 76 80 92 92 88 92 92 92 88 88 88 88 88
48 24 0 0 0 0 0 0 0 0 8 0 12 12 12 12 12 20 20 12 20 20 24 32 32 36 36 44 32 24 12 12 12 12 0 0 0 0 0 0 0 0 8 20 20 56 76 32 36 32 20 20 24 56 76 80 80 88 88 92 92 92 92 92 92 92 88 88 88
44 12 0 0 0 0 0 0 12 32 44 48 36 36 36 32 32 24 12 12 20 24 24 24 36 44 44 36 20 8 0 8 0 0 0 0 0 0 0 0 0 0 0 8 0 12 24 20 12 8 0 8 20 36 64 80 88 88 92 92 92 92 92 92 92 92 92 92 92
32 20 8 0 0 0 8 24 32 44 56 68 68 76 80 80 44 32 24 36 32 24 24 48 44 36 24 12 0 0 0 0 0 0 0 0 0 0 0 0 0 0 0 0 0 0 0 0 0 8 24 44 48 56 64 68 80 88 92 92 92 92 92 92 92 92 92 92 92
12 8 0 0 0 8 24 32 44 64 80 88 80 76 68 68 48 44 32 32 32 44 48 44 24 20 8 0 0 0 0 0 0 0 0 0 0 0 0 0 0 0 0 0 0 0 0 0 0 12 36 56 56 56 56 56 64 76 80 88 88 92 92 92 92 92 92 88 88
0 0 0 0 0 12 24 32 48 64 68 76 76 76 76 64 64 56 44 32 36 44 32 24 20 8 8 8 8 0 0 0 0 0 0 0 0 0 0 0 0 0 0 0 0 0 0 12 24 36 44 56 56 56 56 56 56 56 64 80 76 80 88 92 92 92 88 88 88
0 0 8 12 20 24 36 56 64 76 76 76 80 76 68 68 64 56 44 44 32 32 24 24 20 12 8 12 8 0 0 0 0 0 0 0 0 0 0 0 0 0 0 8 32 36 36 36 36 36 36 36 36 44 44 44 44 48 48 48 44 48 56 88 92 92 92 92 92
20 20 24 24 48 68 76 76 76 80 88 92 88 76 68 64 48 48 56 56 36 32 24 24 24 20 20 20 8 0 0 0 0 0 0 0 0 0 0 8 8 12 24 44 56 48 44 36 32 24 12 0 8 12 20 24 32 32 36 36 20 20 24 36 36 64 92 92 92
44 48 56 56 68 64 64 76 88 92 88 92 88 76 64 48 56 56 64 48 44 36 32 36 36 32 24 12 8 0 0 0 0 0 0 0 0 8 12 24 32 32 32 44 56 48 44 20 12 8 0 0 0 0 0 0 0 0 0 0 0 0 0 0 8 24 44 56 80
68 76 80 80 64 68 80 92 88 88 88 80 76 68 56 56 64 64 64 56 56 56 56 48 44 32 20 8 0 0 0 0 0 0 8 12 20 24 32 48 36 24 20 12 36 20 0 0 0 0 0 0 0 0 0 0 0 0 0 0 0 0 0 0 36 68 76 36 32
80 88 76 56 76 88 88 92 80 76 80 76 64 64 64 48 68 76 76 88 80 68 56 44 32 20 8 0 0 0 0 0 8 12 24 32 24 36 44 32 20 12 0 0 0 0 0 0 0 0 0 0 0 0 0 0 0 0 0 0 0 0 0 0 24 20 12 32 44
64 64 48 36 80 92 92 92 76 76 68 64 64 56 64 88 92 92 92 88 76 56 36 20 8 0 0 0 0 0 0 0 8 20 32 32 36 32 24 20 8 0 0 0 0 0 0 0 0 0 0 0 0 0 0 0 0 0 0 0 0 0 0 0 44 36 12 12 32
44 36 44 68 88 92 92 92 76 68 64 68 80 80 80 92 92 92 92 88 80 44 8 0 0 0 0 0 0 0 0 12 20 24 32 32 24 20 12 8 0 0 0 0 0 0 0 0 0 0 0 0 0 0 0 0 0 0 0 0 0 0 0 0 12 24 36 36 36
20 36 64 92 92 92 92 92 88 80 88 92 92 92 92 92 88 88 88 88 76 36 0 0 0 0 8 8 12 20 20 24 24 20 20 20 12 12 8 0 0 0 0 0 0 0 0 0 0 0 0 0 0 0 0 0 0 0 0 0 0 0 0 0 0 36 68 44 44
32 68 92 92 92 92 92 92 92 92 92 92 92 88 92 88 80 80 80 88 56 24 0 0 8 12 20 24 24 24 24 24 20 12 8 8 0 0 0 0 0 0 0 0 0 0 0 0 0 0 0 0 0 0 0 0 0 0 0 0 0 0 0 0 0 24 56 64 68
80 92 92 92 92 92 92 92 92 92 88 80 80 88 80 76 68 68 68 56 24 12 8 20 24 32 36 32 32 24 20 20 12 8 0 0 0 0 0 0 0 0 0 0 0 0 0 0 0 0 0 0 0 0 0 0 0 0 0 0 0 0 0 8 0 32 64 48 68
92 92 92 92 92 92 88 88 76 76 76 76 76 68 64 56 56 64 56 32 12 12 20 32 36 36 36 32 24 20 12 12 8 8 0 0 0 0 0 0 0 0 0 0 0 0 0 0 0 0 0 0 0 0 0 0 0 0 0 0 0 0 0 0 0 20 32 24 32
88 80 80 88 76 68 56 56 48 48 64 80 76 56 44 48 44 44 36 24 24 36 44 36 36 32 24 20 12 12 8 8 8 0 0 0 0 0 0 0 0 0 0 0 0 0 0 0 0 0 0 0 0 0 0 0 0 12 20 0 0 0 0 20 8 0 8 20 20
64 48 36 44 36 24 24 56 76 76 76 64 48 36 32 36 36 36 36 48 48 48 44 36 24 20 12 8 8 8 8 8 0 0 0 0 0 0 0 0 0 0 0 0 0 0 0 0 0 0 0 0 0 0 0 0 8 36 56 24 32 32 44 76 48 36 36 48 24
32 20 8 8 12 20 36 92 88 76 56 44 32 36 44 48 48 48 56 64 64 48 36 32 20 12 8 8 8 8 8 8 0 0 0 0 0 0 0 0 0 0 0 20 20 8 0 0 0 0 0 0 0 0 0 12 32 48 64 76 80 80 80 80 88 76 64 56 44
20 12 12 20 44 56 76 88 68 56 44 44 48 56 64 64 56 56 56 56 48 44 32 24 20 12 8 8 8 8 0 0 0 0 0 0 0 0 0 0 0 12 32 44 24 8 0 0 0 0 0 0 0 0 12 56 56 68 80 80 80 80 76 64 76 48 32 36 48